Miscellaneous Local Product
Issued by NWS North Platte, NE

Home | Current Version | Previous Version | Graphics & Text | Print | Product List | Glossary On
Versions: 1 2 3 4 5 6 7 8 9 10 11 12 13 14 15 16 17 18 19 20 21 22 23 24 25 26 27 28 29 30 31 32 33 34 35 36 37 38 39 40 41 42 43 44 45 46 47 48 49 50
054
AXUS43 KLBF 250010
MISLBF


WESTERN AND NORTH CENTRAL NEBRASKA HOURLY WEATHER ROUNDUP
NATIONAL WEATHER SERVICE NORTH PLATTE NE
700 PM CDT MON APR 24 2017

NOTE: "FAIR" INDICATES FEW OR NO CLOUDS BELOW 12,000 FEET WITH NO
SIGNIFICANT WEATHER AND/OR OBSTRUCTIONS TO VISIBILITY.

NOTE: STATIONS NOT REPORTING VARIABLES SUCH AS SKY/WEATHER OR
PRESSURE ARE PROVIDED BY RAWS AND APRS NETWORKS AND ARE NOT UNDER
NATIONAL WEATHER SERVICE QUALITY CONTROL.

...OBSERVATIONS IN AND NEAR THE EASTERN PANHANDLE OF NEBRASKA...

CITY           SKY/WX    TMP DP  RH WIND       PRES   REMARKS
PINE RIDGE     CLOUDY    61  43  51 NE14      29.58R
CHADRON        CLOUDY    62  40  44 NE12      29.55S
ALLIANCE       MOSUNNY   63  35  35 N13       29.55S
SIDNEY         PTSUNNY   61  35  37 W7        29.59R
$$

...OBSERVATIONS IN NORTHERN NEBRASKA AND FAR SOUTHERN SOUTH DAKOTA...

CITY           SKY/WX    TMP DP  RH WIND       PRES   REMARKS
WINNER         FAIR      57  42  57 N15       29.59R
VALENTINE      SUNNY     58  40  51 N10       29.60R
THEDFORD       CLOUDY    60  42  52 NE13      29.59S
AINSWORTH      MOSUNNY   55  42  63 N15       29.61R
O`NEILL        SUNNY     58  40  51 NW13      29.57R
ORD            MOSUNNY   64  41  42 N16       29.54R
BROKEN BOW     SUNNY     64  42  44 N13       29.55S
VALENTINE NWR    N/A     58  40  51 N12G20      N/A
HALSEY           N/A     62  41  46 N8G20       N/A
BUTTE            N/A     52  40  64 N7G16       N/A
CHAMBERS         N/A     63  42  47 CALM        N/A
EWING            N/A     59  45  59 NW9         N/A
$$

...OBSERVATIONS IN SOUTHWEST NEBRASKA AND FAR NORTHEAST COLORADO...

CITY           SKY/WX    TMP DP  RH WIND       PRES   REMARKS
HOLYOKE        FAIR      70  32  24 N3        29.57F
IMPERIAL       CLOUDY    69  38  32 N6        29.55R
OGALLALA       CLOUDY    69  30  23 N5        29.55S
NORTH PLATTE   SUNNY     70  35  27 NE14      29.54R
MCCOOK         MOSUNNY   75  39  27 CALM      29.52R
LEXINGTON      SUNNY     67  42  39 NE13      29.55R
STAPLETON        N/A     62  42  48 E5          N/A
$$

...OBSERVATIONS IN CENTRAL LINCOLN COUNTY AREA...

CITY           SKY/WX    TMP DP  RH WIND       PRES   REMARKS
N.P. AIRPORT   SUNNY     70  35  27 NE14      29.54R
N.P. DOWNTOWN    N/A     69  38  31 N8          N/A
N.P. HILLCREST   N/A     68  39  34 NE16        N/A
$$

...SOME OBSERVATIONS FROM AROUND THE REGION...

CITY           SKY/WX    TMP DP  RH WIND       PRES   REMARKS
DENVER         CLOUDY    61  34  36 E16       29.54F
LIMON          CLOUDY    63  35  35 E13       29.58F
ASPEN          CLOUDY    47  32  56 S16       29.72F
LARAMIE        CLOUDY    47  32  56 SW22G32   29.63S
CASPER         CLOUDY    55  32  41 S6        29.51F
CHEYENNE       LGT RAIN  44  40  85 E7        29.65F
SCOTTSBLUFF    LGT RAIN  62  33  33 W13       29.58R
GRAND ISLAND   MOSUNNY   69  41  36 NW10      29.52R
OMAHA          CLOUDY    74  42  31 S17G26    29.51S
SIOUX FALLS    CLOUDY    66  46  48 NW10      29.49S
PIERRE         PTSUNNY   50  38  63 N14       29.60R
RAPID CITY     SUNNY     58  39  49 NE15      29.58R
BISMARCK       CLOUDY    38  31  76 N8        29.71R WCI  32
KANSAS CITY    MOSUNNY   72  37  28 S17G26    29.60S
HILL CITY      SUNNY     78  44  29 NE9       29.50S
WICHITA        CLOUDY    71  51  49 S18       29.56F
DODGE CITY     CLOUDY    77  44  30 E7        29.51F
OKLAHOMA CITY  CLOUDY    71  49  45 S20G28    29.59F
DALLAS         MOSUNNY   76  50  40 S21       29.67F
AMARILLO       CLOUDY    84  19   9 SW14      29.53S
$$




USA.gov is the U.S. government's official web portal to all federal, state and local government web resources and services.